Weather Roundup
Issued by NWS Chicago, IL

Home | Current Version | Previous Version | Text Only | Print | Product List | Glossary Off
Versions: 1 2 3 4 5 6 7 8 9 10 11 12 13 14 15 16 17 18 19 20 21 22 23 24 25 26 27 28 29 30 31 32 33 34 35 36 37 38 39 40 41 42 43 44 45 46 47 48 49 50

123
NZUS59 KLOT 261008
HRRLOT

CHICAGO AREA WEATHER ROUNDUP
NATIONAL WEATHER SERVICE CHICAGO/ROMEOVILLE IL
500 AM CDT SUN MAR 26 2017

NOTE: "FAIR" INDICATES FEW OR NO CLOUDS BELOW 12,000 FEET WITH NO
SIGNIFICANT WEATHER AND/OR OBSTRUCTIONS TO VISIBILITY.

* THESE STATIONS ARE NOT UNDER NWS QUALITY CONTROL. THEY ALSO MAY NOT
  REPORT WEATHER SUCH AS PRECIPITATION OR FOG.

ILZ005-006-012>014-019>023-261100-
NORTHEAST ILLINOIS

CITY           SKY/WX    TMP DP  RH WIND       PRES   REMARKS
OHARE          LGT RAIN  47  45  93 NE6       29.86F FOG
MIDWAY         CLOUDY    49  48  97 E6        29.87F FOG
AURORA         CLOUDY    50  49  96 NE7       29.84F FOG
LANSING*       LGT RAIN  51  51 100 SE12      29.87F
JOLIET*        CLOUDY    55  55  98 SE8       29.85S FOG
WAUKEGAN       FOG       41  41 100 NE7       29.89F VSB 1/4
DUPAGE AIRPORT CLOUDY    48  48 100 NE6       29.85F FOG
WHEELING       CLOUDY    44  44 100 NE3       29.88F FOG
KANKAKEE*      CLOUDY    55  54  97 SE13      29.86S FOG
MORRIS*        CLOUDY    54  53  95 SE7       29.83S FOG
LEWIS AIRPORT* CLOUDY    53  53 100 SE9       29.85S
$$

WIZ051-052-058>065-066-070>072-261100-
SOUTHEAST WISCONSIN

CITY           SKY/WX    TMP DP  RH WIND       PRES   REMARKS
MILWAUKEE      LGT RAIN  39  37  92 NE12      29.93F VSB 1
KENOSHA*       LGT RAIN  42  41  96 E10       29.90F VSB 1/2
RACINE*        FOG       40  38  93 NE9       29.93F VSB 1
WAUKESHA       FOG       36  36 100 NE9       29.93S VSB 3/4
WEST BEND      RAIN      37  37 100 E9        29.94F
$$

INZ001>003-010>013-019-020-261100-
NORTHWEST INDIANA

CITY           SKY/WX    TMP DP  RH WIND       PRES   REMARKS
GARY*          LGT RAIN  52  52 100 SE14      29.88F
MICHIGAN CITY* NOT AVBL
RENSSELAER*    NOT AVBL
VALPARAISO     LGT RAIN  49  48  97 E10       29.91S FOG
$$

LMZ740>746-261100-
SOUTHERN LAKE MICHIGAN

STATION/POSITION TIME  SKY/WX   TEMP WIND        PRES    VSBY
                                AIR  DIR/SP/G
                 (UTC)          (F)  (DEG/KT/KT) (MB)    (MI)
HARRISON CRIB    0940            44  110/ 12/ 12   N/A
BURNHAM HARBOR   1000            43   20/  1/  4   N/A
CALUMET HARBOR   0948            47  110/  8/ 10 1011.0F
BURNS HARBOR     0940            51  140/ 11/ 14 1012.5F
MICHIGAN CITY    0940            48  110/ 10/ 12   N/A
$$

ABBREVIATIONS USED IN REMARKS
   TC - TEMPERATURE IN CELSIUS
  WCI - WIND CHILL INDEX
   HX - HEAT INDEX
  VSB - VISIBILITY
$$




USA.gov is the U.S. government's official web portal to all federal, state and local government web resources and services.